Starlink 34798

operational
NORAD ID: 65063 Int'l Des: 2025-165 Owner: SPXS Country: US Constellation: starlink
LEOCIRCULARRETROGRADE

Starlink 34798について

説明を読み込み中...

リアルタイム位置

3D地球を読み込み中...

次回通過

高度履歴

Altitude vs Time

uPlot chart will show altitude changes over time

軌道要素

1 65063U 25165H 25340.77852073 .00011032 00000-0 76750-3 0 9997
2 65063 97.6033 55.6986 0001307 85.0792 275.0584 15.05656106 20818
Epoch: Dec 6, 2025 • Age: 25 hours

現在のステータス

高度 575.2 km
速度 7.57 km/s
衛星直下点 -65.63°S, 58.31°E
打ち上げ日 Jul 31, 2025
運用期間 0.3 years
タイプ internet

技術仕様

分類 Payload
質量 575.00 kg
乾燥質量 530.00 kg
総質量 575.00 kg
長さ 0.30 m
直径 4.10 m
スパン 29.00 m
形状 Box + pan
製造者 SPXS
バスタイプ Starlink V2MO
フェーズステータス In Orbit
所有者/国 SPXS/US

大規模コンステレーション

Loading constellations...